Location: Goettingen
(51.5300°N, 9.9433°E)
Time: 17:51:24
(UTC+02:00)

ISS - Pass Details

Date: 12 May 2026
Orbit: 414 x 424 km, 51.6° (Epoch: 13 May)

Event Time Altitude Azimuth Distance (km) Brightness Sun altitude
Rises 00:54:59 0° 279° (W) 2,355 0.2 -20.2°
Reaches altitude 10° 00:57:05 10° 278° (W) 1,492 -0.8 -20.3°
Enters shadow 00:59:21 40° 272° (W) 628 -2.9 -20.3°
